owner,sensor,date,latitude,longitude,vertical_datum,wind_speed,wind_to_direction,wind_speed_of_gust,qcFlag 
LUMCON,ioos:station:LUMCON:101:1,2012-09-03T15:00:00Z,29.2533,-90.6633,1.0,5.7,50.0,6.7,'11111222,11111222,11111222' 
LUMCON,ioos:station:LUMCON:101:1,2012-09-04T14:00:00Z,29.2533,-90.6633,1.0,4.6,240.0,7.2,'11111222,11111222,11111222' 
LUMCON,ioos:station:LUMCON:101:1,2012-09-14T16:00:00Z,29.2533,-90.6633,1.0,5.1,0.0,6.7,'11111222,11111222,11111222' 
LUMCON,ioos:station:LUMCON:101:1,2012-09-18T20:00:00Z,29.2533,-90.6633,1.0,5.7,160.0,8.2,'11111222,11111222,11111222' 
LUMCON,ioos:station:LUMCON:101:1,2012-09-26T21:00:00Z,29.2533,-90.6633,1.0,3.6,50.0,5.1,'11111222,11111222,11111222' 
LUMCON,ioos:station:LUMCON:101:1,2012-09-27T14:00:00Z,29.2533,-90.6633,1.0,3.6,330.0,5.7,'11111222,11111222,11111222' 
LUMCON,ioos:station:LUMCON:101:1,2012-09-27T15:00:00Z,29.2533,-90.6633,1.0,4.1,330.0,6.2,'11111222,11111222,11111222' 
LUMCON,ioos:station:LUMCON:101:1,2012-09-27T16:00:00Z,29.2533,-90.6633,1.0,4.6,330.0,5.7,'11111222,11111222,11111222' 
LUMCON,ioos:station:LUMCON:101:1,2012-09-27T17:00:00Z,29.2533,-90.6633,1.0,2.1,350.0,3.1,'11111222,11111222,11111222' 
LUMCON,ioos:station:LUMCON:101:1,2012-09-27T18:00:00Z,29.2533,-90.6633,1.0,2.6,240.0,4.1,'11111222,11111222,11111222' 
LUMCON,ioos:station:LUMCON:101:1,2012-09-27T20:00:00Z,29.2533,-90.6633,1.0,5.1,40.0,7.7,'11111222,11111222,11111222' 
LUMCON,ioos:station:LUMCON:101:1,2012-09-27T21:00:00Z,29.2533,-90.6633,1.0,2.6,150.0,4.1,'11111222,11111222,11111222' 
LUMCON,ioos:station:LUMCON:101:1,2012-09-27T22:00:00Z,29.2533,-90.6633,1.0,3.1,50.0,4.6,'11111222,11111222,11111222' 
LUMCON,ioos:station:LUMCON:101:1,2012-09-27T23:00:00Z,29.2533,-90.6633,1.0,2.1,40.0,3.6,'11111222,11111222,11111222' 
LUMCON,ioos:station:LUMCON:101:1,2012-09-28T00:00:00Z,29.2533,-90.6633,1.0,3.1,290.0,4.6,'11111222,11111222,11111222' 
LUMCON,ioos:station:LUMCON:101:1,2012-09-28T01:00:00Z,29.2533,-90.6633,1.0,3.1,360.0,4.1,'11111222,11144222,11111222' 
LUMCON,ioos:station:LUMCON:101:1,2012-09-28T02:00:00Z,29.2533,-90.6633,1.0,2.1,340.0,3.1,'11111222,11111222,11111222' 
LUMCON,ioos:station:LUMCON:101:1,2012-09-28T03:00:00Z,29.2533,-90.6633,1.0,3.1,340.0,4.1,'11111222,11111222,11111222' 
LUMCON,ioos:station:LUMCON:101:1,2012-09-28T04:00:00Z,29.2533,-90.6633,1.0,4.1,350.0,5.1,'11111222,11111222,11111222' 
LUMCON,ioos:station:LUMCON:101:1,2012-09-28T05:00:00Z,29.2533,-90.6633,1.0,3.1,360.0,4.6,'11111222,11144222,11111222' 
LUMCON,ioos:station:LUMCON:101:1,2012-09-28T06:00:00Z,29.2533,-90.6633,1.0,3.6,10.0,5.1,'11111222,11111222,11111222' 
LUMCON,ioos:station:LUMCON:101:1,2012-09-28T07:00:00Z,29.2533,-90.6633,1.0,3.6,10.0,5.1,'11111222,11111222,11111222' 
LUMCON,ioos:station:LUMCON:101:1,2012-09-28T08:00:00Z,29.2533,-90.6633,1.0,4.6,10.0,6.2,'11111222,11111222,11111222' 
LUMCON,ioos:station:LUMCON:101:1,2012-09-28T09:00:00Z,29.2533,-90.6633,1.0,4.1,20.0,5.1,'11111222,11111222,11111222' 
LUMCON,ioos:station:LUMCON:101:1,2012-09-28T10:00:00Z,29.2533,-90.6633,1.0,4.1,20.0,5.1,'11111222,11111222,11111222' 
LUMCON,ioos:station:LUMCON:101:1,2012-09-28T11:00:00Z,29.2533,-90.6633,1.0,3.6,20.0,4.6,'11111222,11111222,11111222' 
LUMCON,ioos:station:LUMCON:101:1,2012-09-28T12:00:00Z,29.2533,-90.6633,1.0,3.1,20.0,4.6,'11111222,11111222,11111222' 
LUMCON,ioos:station:LUMCON:101:1,2012-09-28T13:00:00Z,29.2533,-90.6633,1.0,3.6,20.0,4.6,'11111222,11111222,11111222' 
LUMCON,ioos:station:LUMCON:101:1,2012-09-28T14:00:00Z,29.2533,-90.6633,1.0,3.1,30.0,4.6,'11111222,11111222,11111222' 
LUMCON,ioos:station:LUMCON:101:1,2012-09-28T15:00:00Z,29.2533,-90.6633,1.0,3.6,10.0,5.1,'11111222,11111222,11111222' 
LUMCON,ioos:station:LUMCON:101:1,2012-09-28T16:00:00Z,29.2533,-90.6633,1.0,4.6,20.0,6.2,'11111222,11111222,11111222' 
LUMCON,ioos:station:LUMCON:101:1,2012-09-28T18:00:00Z,29.2533,-90.6633,1.0,3.6,30.0,5.1,'11111222,11111222,11111222' 
LUMCON,ioos:station:LUMCON:101:1,2012-09-28T19:00:00Z,29.2533,-90.6633,1.0,4.6,30.0,,'1111122,1111122,1111122' 
LUMCON,ioos:station:LUMCON:101:1,2012-09-28T20:00:00Z,29.2533,-90.6633,1.0,4.1,30.0,,'1111122,1111122,1111122' 
LUMCON,ioos:station:LUMCON:101:1,2012-09-28T21:00:00Z,29.2533,-90.6633,1.0,4.6,30.0,,'1111122,1111122,1111122' 
LUMCON,ioos:station:LUMCON:101:1,2012-09-28T22:00:00Z,29.2533,-90.6633,1.0,3.6,50.0,,'1111122,1111122,1111122' 
LUMCON,ioos:station:LUMCON:101:1,2012-09-28T23:00:00Z,29.2533,-90.6633,1.0,3.6,10.0,,'1111122,1111122,1111122' 
LUMCON,ioos:station:LUMCON:101:1,2012-09-29T00:00:00Z,29.2533,-90.6633,1.0,2.6,40.0,,'1111122,1111122,1111122' 
LUMCON,ioos:station:LUMCON:101:1,2012-09-29T01:00:00Z,29.2533,-90.6633,1.0,2.1,30.0,,'1111122,1111122,1111122' 
LUMCON,ioos:station:LUMCON:101:1,2012-09-29T02:00:00Z,29.2533,-90.6633,1.0,2.1,10.0,,'1111122,1111122,1111122' 
LUMCON,ioos:station:LUMCON:101:1,2012-09-29T03:00:00Z,29.2533,-90.6633,1.0,1.5,30.0,,'1111122,1111122,1111122' 
LUMCON,ioos:station:LUMCON:101:1,2012-09-29T04:00:00Z,29.2533,-90.6633,1.0,1.5,50.0,,'1111122,1111122,1111122' 
LUMCON,ioos:station:LUMCON:101:1,2012-09-29T05:00:00Z,29.2533,-90.6633,1.0,2.6,280.0,,'1111122,1111122,1111122' 
LUMCON,ioos:station:LUMCON:101:1,2012-09-29T06:00:00Z,29.2533,-90.6633,1.0,2.1,290.0,,'1111122,1111122,1111122' 
LUMCON,ioos:station:LUMCON:101:1,2012-09-29T07:00:00Z,29.2533,-90.6633,1.0,4.1,30.0,,'1111122,1111122,1111122' 
LUMCON,ioos:station:LUMCON:101:1,2012-09-29T08:00:00Z,29.2533,-90.6633,1.0,3.1,30.0,,'1111122,1111122,1111122' 
LUMCON,ioos:station:LUMCON:101:1,2012-09-29T09:00:00Z,29.2533,-90.6633,1.0,4.1,30.0,,'1111122,1111122,1111122' 
LUMCON,ioos:station:LUMCON:101:1,2012-09-29T10:00:00Z,29.2533,-90.6633,1.0,3.6,40.0,,'1111122,1111122,1111122' 
LUMCON,ioos:station:LUMCON:101:1,2012-09-29T11:00:00Z,29.2533,-90.6633,1.0,5.1,30.0,,'1111122,1111122,1111122' 
LUMCON,ioos:station:LUMCON:101:1,2012-09-29T12:00:00Z,29.2533,-90.6633,1.0,3.1,330.0,,'1111122,1111122,1111122' 
LUMCON,ioos:station:LUMCON:101:1,2012-09-29T13:00:00Z,29.2533,-90.6633,1.0,3.6,280.0,,'1111122,1111122,1111122' 
LUMCON,ioos:station:LUMCON:101:1,2012-09-29T14:00:00Z,29.2533,-90.6633,1.0,2.6,270.0,,'1111122,1111122,1111122' 
LUMCON,ioos:station:LUMCON:101:1,2012-09-29T15:00:00Z,29.2533,-90.6633,1.0,2.6,180.0,,'1111122,1111122,1111122' 
LUMCON,ioos:station:LUMCON:101:1,2012-09-29T16:00:00Z,29.2533,-90.6633,1.0,2.6,280.0,,'1111122,1111122,1111122' 
LUMCON,ioos:station:LUMCON:101:1,2012-09-29T17:00:00Z,29.2533,-90.6633,1.0,2.1,290.0,,'1111122,1111122,1111122' 
LUMCON,ioos:station:LUMCON:101:1,2012-09-29T18:00:00Z,29.2533,-90.6633,1.0,1.0,310.0,,'1111122,1111122,1111122' 
LUMCON,ioos:station:LUMCON:101:1,2012-09-29T19:00:00Z,29.2533,-90.6633,1.0,2.1,310.0,,'1111122,1111122,1111122' 
LUMCON,ioos:station:LUMCON:101:1,2012-09-29T20:00:00Z,29.2533,-90.6633,1.0,2.6,340.0,,'1111122,1111122,1111122' 
LUMCON,ioos:station:LUMCON:101:1,2012-09-29T21:00:00Z,29.2533,-90.6633,1.0,2.1,330.0,,'1111122,1111122,1111122' 
LUMCON,ioos:station:LUMCON:101:1,2012-09-29T22:00:00Z,29.2533,-90.6633,1.0,4.1,360.0,,'1111122,1111122,1111122' 
LUMCON,ioos:station:LUMCON:101:1,2012-09-29T23:00:00Z,29.2533,-90.6633,1.0,4.6,10.0,,'1111122,1111122,1111122' 
LUMCON,ioos:station:LUMCON:101:1,2012-09-30T00:00:00Z,29.2533,-90.6633,1.0,4.1,360.0,,'1111122,1111122,1111122' 
LUMCON,ioos:station:LUMCON:101:1,2012-09-30T01:00:00Z,29.2533,-90.6633,1.0,4.6,360.0,,'1111122,1111122,1111122' 
LUMCON,ioos:station:LUMCON:101:1,2012-09-30T02:00:00Z,29.2533,-90.6633,1.0,5.1,360.0,,'1111122,1111122,1111122' 
LUMCON,ioos:station:LUMCON:101:1,2012-09-30T03:00:00Z,29.2533,-90.6633,1.0,5.7,20.0,,'1111122,1111122,1111122' 
LUMCON,ioos:station:LUMCON:101:1,2012-09-30T04:00:00Z,29.2533,-90.6633,1.0,5.1,30.0,,'1111122,1111122,1111122' 
LUMCON,ioos:station:LUMCON:101:1,2012-09-30T05:00:00Z,29.2533,-90.6633,1.0,5.7,30.0,,'1111122,1111122,1111122' 
LUMCON,ioos:station:LUMCON:101:1,2012-09-30T06:00:00Z,29.2533,-90.6633,1.0,4.6,30.0,,'1111122,1111122,1111122' 
LUMCON,ioos:station:LUMCON:101:1,2012-09-30T07:00:00Z,29.2533,-90.6633,1.0,5.1,20.0,,'1111122,1111122,1111122' 
LUMCON,ioos:station:LUMCON:101:1,2012-09-30T08:00:00Z,29.2533,-90.6633,1.0,5.1,30.0,,'1111122,1111122,1111122' 
LUMCON,ioos:station:LUMCON:101:1,2012-09-30T09:00:00Z,29.2533,-90.6633,1.0,5.1,20.0,,'1111122,1111122,1111122' 
LUMCON,ioos:station:LUMCON:101:1,2012-09-30T10:00:00Z,29.2533,-90.6633,1.0,5.7,50.0,,'1111122,1111122,1111122' 
LUMCON,ioos:station:LUMCON:101:1,2012-09-30T11:00:00Z,29.2533,-90.6633,1.0,7.2,20.0,,'1111122,1111122,1111122' 
LUMCON,ioos:station:LUMCON:101:1,2012-09-30T12:00:00Z,29.2533,-90.6633,1.0,6.7,30.0,,'1111122,1111122,1111122' 
LUMCON,ioos:station:LUMCON:101:1,2012-09-30T13:00:00Z,29.2533,-90.6633,1.0,7.7,30.0,,'1111122,1111122,1111122' 
LUMCON,ioos:station:LUMCON:101:1,2012-09-30T14:00:00Z,29.2533,-90.6633,1.0,13.4,340.0,,'1111122,1111122,1111122' 
LUMCON,ioos:station:LUMCON:101:1,2012-09-30T15:00:00Z,29.2533,-90.6633,1.0,6.2,50.0,,'1111122,1111122,1111122' 
LUMCON,ioos:station:LUMCON:101:1,2012-09-30T16:00:00Z,29.2533,-90.6633,1.0,6.2,100.0,,'1111122,1111122,1111122' 
LUMCON,ioos:station:LUMCON:101:1,2012-09-30T17:00:00Z,29.2533,-90.6633,1.0,5.7,130.0,,'1111122,1111122,1111122' 
LUMCON,ioos:station:LUMCON:101:1,2012-09-30T18:00:00Z,29.2533,-90.6633,1.0,7.7,60.0,,'1111122,1111122,1111122' 
LUMCON,ioos:station:LUMCON:101:1,2012-09-30T19:00:00Z,29.2533,-90.6633,1.0,8.2,60.0,,'1111122,1111122,1111122' 
LUMCON,ioos:station:LUMCON:101:1,2012-09-30T20:00:00Z,29.2533,-90.6633,1.0,9.3,60.0,,'1111122,1111122,1111122' 
LUMCON,ioos:station:LUMCON:101:1,2012-09-30T21:00:00Z,29.2533,-90.6633,1.0,9.8,70.0,,'1111122,1111122,1111122' 
LUMCON,ioos:station:LUMCON:101:1,2012-09-30T22:00:00Z,29.2533,-90.6633,1.0,7.7,50.0,,'1111122,1111122,1111122' 
LUMCON,ioos:station:LUMCON:101:1,2012-09-30T23:00:00Z,29.2533,-90.6633,1.0,8.7,110.0,,'1111122,1111122,1111122' 
 
DISCLAIMER: The Gulf of Mexico Coastal and Ocean Observing (GCOOS) Data Portal aggregates data from the regional data providers for the convenience of all data users. Data published on this website should not be used for navigation or certain other uses as we cannot guarantee data accuracy or availability. The data and delivery services are provided 'as is' without warranty of any kind. Data Source: Gulf of Mexico Coastal Ocean Observing System Data Portal (http://data.gcoos.org/) 
